Карточка аэропорта USTR

Внимание!
Информация на этой странице в стадии наполнения.
Если вы не увидели какой-то информации, или заметили неточность - пожалуйста сообщите нам!
Спасибо!
Команда RU-STAFF
Название аэропортаРощино
Название аэропорта (англ.)Roshschino
Превышение378 ft. (115.2 m.)
Координаты57°10.098', 65°19.002'
Высота перехода3000ft
Эшелон переходаQNH⩾1013hPa:FL040; QNH⩾977hPa:FL050; QNH⩽977hPa:FL060
Коды ответчика5101-5137
Зона ОрВДТюмень РПИ (USTV)
Данные METARUSTR 130000Z 29003MPS CAVOK 24/15 Q1016 R30/090065 R21/090065 NOSIG
Проноз погоды (TAF)USTR 121945Z 1221/1321 27003G08MPS 9999 SCT020 TEMPO 1221/1224 23003G08MPS 3000 BR SCT007 BECMG 1302/1304 29005G12MPS BECMG 1306/1309 32005G14MPS TEMPO 1306/1315 -TSRA SCT020CB
NOTAMshow/hide NOTAM
AWOS   TABLE

Информация о ВПП

ВПП Длина ВПП (м.) Покрытие Курс ВПП Частота ILS
033003Асфальтобетон34108.3
213003Асфальтобетон214110.7
122704Асфальтобетон121 
302704Асфальтобетон301 

Диспетчерские позиции

Позывной Наименование органа УВД Частота
USTR_R_APPТюмень-Круг126.100
USTR_GNDТюмень-Руление119.000
USTR_TWRТюмень-Старт118.200



Спутниковое изображение